Flag for U.S.A. Weather past 2 weeks in Pasco, Washington, U.S.A.

Now
74 °F

Clear.


Feels Like: 76 °F
Forecast: 69 / 99 °F
Wind: 5 mph from Northwest

Location: Tri-Cities Airport

Current Time: Aug 2, 2014 at 12:13:02 AM

Latest Report: Aug 1, 2014 at 11:53 PM


Visibility: 10 mi

Pressure: 29.81 "Hg

Humidity: 64%

Dew point: 61 °F

Location of PascoLocation

Historic Weather in Pasco — Graph

°F

Pasco temperature yesterday

Maximum temperature yesterday: 99 °F (at 2:53 PM)
Minimum temperature yesterday: 67 °F (at 5:53 AM)
Average temperature yesterday: 83 °F

Past Weeks' High & Low Weather Summary

 TemperatureHumidityPressure
High106 °F (Jul 29, 4:53 PM)97% (Jul 23, 5:53 AM)30.15 "Hg (Jul 23, 5:53 AM)
Low50 °F (Jul 26, 5:53 AM)12% (Jul 29, 6:53 PM)29.69 "Hg (Jul 20, 6:53 PM)
Average78 °F46%29.93 "Hg
* Reported Jul 17 10:53 PM — Aug 1 10:53 PM, Pasco, Weather by CustomWeather, © 2014

Note: Actual official high and low records may vary slightly from our data, if they occured in-between our weather recording intervals... More about our weather records

Advertising

Pasco weather history for previous 24 hours

 ConditionsComfort  
Time TempWeatherWind HumidityBarometerVisibility
10:53 PM
Aug 1
75 °FClear.5 mph66%29.81 "Hg10 mi
9:53 PM80 °FClear.6 mph56%29.80 "Hg10 mi
8:53 PM83 °FSunny.6 mph55%29.81 "Hg10 mi
7:53 PM87 °FSunny.7 mph46%29.79 "Hg10 mi
6:53 PM94 °FSunny.6 mph35%29.80 "Hg10 mi
5:53 PM99 °FSunny.3 mph24%29.79 "Hg10 mi
4:53 PM99 °FSunny.6 mph22%29.82 "Hg10 mi
3:53 PM99 °FSunny.7 mph24%29.84 "Hg10 mi
2:53 PM99 °FSunny.6 mph22%29.85 "Hg10 mi
1:53 PM97 °FSunny.7 mph26%29.88 "Hg10 mi
12:53 PM95 °FSunny.5 mph28%29.90 "Hg10 mi
11:53 AM91 °FSunny.6 mph28%29.91 "Hg10 mi
10:53 AM90 °FSunny.3 mph28%29.92 "Hg10 mi
9:53 AM86 °FSunny.3 mph37%29.92 "Hg10 mi
8:53 AM82 °FSunny.No wind43%29.93 "Hg10 mi
7:53 AM76 °FSunny.5 mph52%29.93 "Hg10 mi
6:53 AM70 °FSunny.No wind73%29.92 "Hg10 mi
5:53 AM67 °FClear.No wind79%29.90 "Hg10 mi
4:53 AM68 °FClear.5 mph76%29.89 "Hg10 mi
3:53 AM68 °FClear.No wind76%29.89 "Hg10 mi
2:53 AM69 °FClear.No wind76%29.89 "Hg10 mi
1:53 AM70 °FClear.3 mph73%29.88 "Hg10 mi
12:53 AM68 °FClear.8 mph82%29.87 "Hg10 mi
Weather by CustomWeather, © 2014

See weather overviewHow to use our weather pages